THY30T LTFM-EGLL

Flight info

Callsign THY30T
Flight time N/A
Altitude 38000
Route TUDBU1E/36 TUDBU Q26 ETUBA DCT NAVOD DCT INVED DCT BEGLA DCT DEXIT DCT INBED DCT BOMBI DCT ADKUV DCT BUB L608 LOGAN
Aircraft B77W/H-SDE1E2E3FGHIJ2J3J4J5M1RWXY/LB1D1

Departure

Time 2026-05-04 15:46
Airport İstanbul Airport (LTFM)

Arrival

Time N/A
Airport London Heathrow Airport (EGLL)
Time Latitude Longitude Altitude Speed Heading
2026-05-04 15:07 41.26602 28.74370 318 ft 0 kts 266°
2026-05-04 15:17 41.26603 28.74403 318 ft 3 kts 264°
2026-05-04 15:17 41.26605 28.74426 318 ft 1 kts 265°
2026-05-04 15:18 41.26606 28.74446 318 ft 3 kts 291°
2026-05-04 15:18 41.26596 28.74462 314 ft 3 kts 344°
2026-05-04 15:18 41.26577 28.74466 316 ft 3 kts 359°
2026-05-04 15:19 41.26566 28.74466 316 ft 0 kts 360°
2026-05-04 15:40 41.26567 28.74466 318 ft 0 kts 360°
2026-05-04 15:40 41.26596 28.74466 318 ft 8 kts 360°
2026-05-04 15:41 41.26656 28.74466 318 ft 9 kts 360°
2026-05-04 15:41 41.26717 28.74464 318 ft 9 kts 359°
2026-05-04 15:41 41.26779 28.74462 318 ft 9 kts 359°
2026-05-04 15:41 41.26841 28.74461 318 ft 9 kts 359°
2026-05-04 15:42 41.26903 28.74460 318 ft 9 kts 359°
2026-05-04 15:42 41.26960 28.74486 317 ft 9 kts 55°
2026-05-04 15:42 41.26970 28.74573 317 ft 10 kts 89°
2026-05-04 15:42 41.26971 28.74673 317 ft 13 kts 89°
2026-05-04 15:43 41.26973 28.74806 317 ft 16 kts 89°
2026-05-04 15:43 41.26975 28.74962 317 ft 17 kts 90°
2026-05-04 15:43 41.26976 28.75120 316 ft 17 kts 89°
2026-05-04 15:43 41.26979 28.75293 311 ft 17 kts 88°
2026-05-04 15:44 41.26925 28.75372 315 ft 14 kts 181°
2026-05-04 15:44 41.26828 28.75372 315 ft 14 kts 179°
2026-05-04 15:44 41.26731 28.75374 315 ft 14 kts 179°
2026-05-04 15:44 41.26634 28.75375 317 ft 14 kts 179°
2026-05-04 15:45 41.26537 28.75377 317 ft 14 kts 179°
2026-05-04 15:45 41.26441 28.75389 318 ft 14 kts 150°
2026-05-04 15:45 41.26420 28.75510 318 ft 14 kts 90°
2026-05-04 15:45 41.26429 28.75638 317 ft 14 kts 58°
2026-05-04 15:46 41.26522 28.75664 317 ft 14 kts 359°
2026-05-04 15:46 41.26840 28.75659 312 ft 101 kts 359°
2026-05-04 15:46 41.27922 28.75628 523 ft 195 kts 358°
2026-05-04 15:46 41.29280 28.75607 1511 ft 192 kts
2026-05-04 15:47 41.30566 28.76088 2491 ft 194 kts 26°
2026-05-04 15:47 41.31664 28.77132 3329 ft 201 kts 42°
2026-05-04 15:47 41.32706 28.78374 3990 ft 203 kts 29°
2026-05-04 15:47 41.33932 28.79322 4797 ft 206 kts 25°
2026-05-04 15:48 41.35213 28.80260 5436 ft 215 kts 25°
2026-05-04 15:48 41.36580 28.81258 6127 ft 233 kts 24°
2026-05-04 15:48 41.39703 28.82431 7853 ft 241 kts 359°
2026-05-04 15:49 41.41386 28.82271 8908 ft 242 kts 356°
2026-05-04 15:49 41.43069 28.82044 10040 ft 244 kts 357°
2026-05-04 15:49 41.44802 28.81809 10765 ft 260 kts 358°
2026-05-04 15:49 41.46718 28.81557 11026 ft 293 kts 358°
2026-05-04 15:50 41.48846 28.81281 11400 ft 319 kts 357°
2026-05-04 15:50 41.51102 28.80989 12162 ft 331 kts 358°
2026-05-04 15:50 41.53428 28.80696 13062 ft 340 kts 358°
2026-05-04 15:50 41.55814 28.80400 14023 ft 347 kts 358°
2026-05-04 15:51 41.58217 28.79963 14786 ft 355 kts 348°
2026-05-04 15:51 41.60487 28.78473 15528 ft 374 kts 327°
2026-05-04 15:51 41.62362 28.75996 16517 ft 386 kts 312°
2026-05-04 15:51 41.63646 28.72792 17387 ft 398 kts 295°
2026-05-04 15:52 41.64592 28.69270 18176 ft 407 kts 295°
2026-05-04 15:52 41.65583 28.65699 18992 ft 412 kts 296°
2026-05-04 15:52 41.66608 28.62108 19840 ft 415 kts 295°
2026-05-04 15:52 41.67245 28.58276 20495 ft 434 kts 277°
2026-05-04 15:53 41.67182 28.54191 21232 ft 444 kts 272°
2026-05-04 15:53 41.67108 28.50049 21993 ft 448 kts 274°
2026-05-04 15:53 41.67271 28.45897 22633 ft 447 kts 286°
2026-05-04 15:53 41.68268 28.42083 23201 ft 438 kts 302°
2026-05-04 15:54 41.69624 28.38328 23778 ft 446 kts 301°
2026-05-04 15:54 41.70904 28.34618 24059 ft 446 kts 300°
2026-05-04 15:54 41.72173 28.30807 24037 ft 449 kts 299°
2026-05-04 15:54 41.73421 28.26979 24041 ft 448 kts 299°
2026-05-04 15:55 41.74659 28.23154 24037 ft 447 kts 299°
2026-05-04 15:55 41.75894 28.19334 24058 ft 448 kts 299°
2026-05-04 15:55 41.77146 28.15481 24584 ft 453 kts 299°
2026-05-04 15:55 41.78422 28.11549 25335 ft 455 kts 299°
2026-05-04 15:56 41.79719 28.07750 26029 ft 452 kts 304°
2026-05-04 15:56 41.81455 28.04262 26576 ft 450 kts 313°
2026-05-04 15:56 41.83416 28.00970 27120 ft 454 kts 314°
2026-05-04 15:56 41.85411 27.97655 27710 ft 459 kts 314°
2026-05-04 15:57 41.87419 27.94235 28319 ft 462 kts 313°
2026-05-04 15:57 41.89358 27.90843 28896 ft 466 kts 312°
2026-05-04 15:57 41.91316 27.87355 29476 ft 470 kts 312°
2026-05-04 15:57 41.93284 27.83828 29991 ft 474 kts 311°
2026-05-04 15:58 41.95272 27.80266 30375 ft 479 kts 311°
2026-05-04 15:58 41.97298 27.76701 30761 ft 480 kts 313°
2026-05-04 15:58 41.99513 27.73349 31196 ft 479 kts 317°
2026-05-04 15:58 42.01847 27.70175 31775 ft 475 kts 319°
2026-05-04 15:59 42.04206 27.67086 32414 ft 472 kts 320°
2026-05-04 15:59 42.06555 27.64014 33007 ft 470 kts 319°
2026-05-04 15:59 42.08878 27.60937 33524 ft 469 kts 319°
2026-05-04 15:59 42.11195 27.57820 33882 ft 472 kts 318°
2026-05-04 16:00 42.13506 27.54673 34253 ft 473 kts 317°
2026-05-04 16:00 42.15803 27.51516 34684 ft 471 kts 317°
2026-05-04 16:00 42.18086 27.48364 35135 ft 469 kts 317°
2026-05-04 16:00 42.20361 27.45216 35542 ft 469 kts 317°
2026-05-04 16:01 42.22635 27.42066 35917 ft 468 kts 317°
2026-05-04 16:01 42.24907 27.38918 36284 ft 468 kts 316°
2026-05-04 16:01 42.27179 27.35769 36619 ft 468 kts 316°
2026-05-04 16:01 42.29454 27.32613 36986 ft 468 kts 316°
2026-05-04 16:02 42.31721 27.29465 37362 ft 467 kts 316°
2026-05-04 16:02 42.33981 27.26323 37743 ft 466 kts 316°
2026-05-04 16:02 42.38519 27.20008 38038 ft 471 kts 316°
2026-05-04 16:03 42.40804 27.16823 38035 ft 471 kts 316°
2026-05-04 16:03 42.45320 27.10511 38033 ft 463 kts 316°
2026-05-04 16:04 42.49763 27.04292 38043 ft 463 kts 316°
2026-05-04 16:04 42.56488 26.94852 38040 ft 465 kts 315°
2026-05-04 16:05 42.60977 26.88532 38036 ft 465 kts 315°
2026-05-04 16:06 42.67714 26.79023 38034 ft 466 kts 315°
2026-05-04 16:07 42.76679 26.66316 38037 ft 465 kts 315°
2026-05-04 16:08 42.84834 26.52662 38039 ft 467 kts 305°
2026-05-04 16:09 42.93575 26.34067 38038 ft 465 kts 305°
2026-05-04 16:10 43.00589 26.19253 38039 ft 464 kts 304°
2026-05-04 16:11 43.07579 26.04423 38048 ft 464 kts 304°
2026-05-04 16:12 43.18024 25.82116 38050 ft 465 kts 304°
2026-05-04 16:13 43.24984 25.67156 38051 ft 466 kts 304°
2026-05-04 16:14 43.31931 25.52148 38051 ft 466 kts 304°
2026-05-04 16:16 43.40589 25.33336 38055 ft 466 kts 303°
2026-05-04 16:17 43.49399 25.14677 38068 ft 464 kts 307°
2026-05-04 16:18 43.57087 25.00369 38069 ft 464 kts 308°
2026-05-04 16:19 43.66559 24.82362 38065 ft 463 kts 307°
2026-05-04 16:20 43.75964 24.64304 38066 ft 463 kts 307°
2026-05-04 16:22 43.85298 24.46280 38069 ft 461 kts 307°
2026-05-04 16:23 43.95864 24.25742 38062 ft 461 kts 307°
2026-05-04 16:25 44.06958 24.04020 38039 ft 460 kts 307°
2026-05-04 16:26 44.19913 23.78450 38045 ft 463 kts 306°
2026-05-04 16:28 44.29180 23.60017 38045 ft 465 kts 306°
2026-05-04 16:29 44.42258 23.38151 38033 ft 463 kts 313°
2026-05-04 16:31 44.52264 23.21841 38036 ft 461 kts 312°
2026-05-04 16:32 44.64678 23.01407 38030 ft 459 kts 312°
2026-05-04 16:33 44.72945 22.87723 38023 ft 459 kts 312°
2026-05-04 16:34 44.79143 22.77421 38031 ft 460 kts 311°
2026-05-04 16:35 44.91524 22.56724 38050 ft 460 kts 311°
2026-05-04 16:36 44.97701 22.46344 38057 ft 460 kts 311°
2026-05-04 16:37 45.03866 22.35943 38042 ft 460 kts 311°
2026-05-04 16:38 45.12058 22.22065 38081 ft 459 kts 311°
2026-05-04 16:39 45.22271 22.04665 38095 ft 459 kts 311°
2026-05-04 16:40 45.30407 21.90728 38081 ft 457 kts 311°
2026-05-04 16:41 45.40502 21.73337 38070 ft 455 kts 311°
2026-05-04 16:43 45.50514 21.55983 38075 ft 453 kts 311°
2026-05-04 16:43 45.56496 21.45564 38081 ft 453 kts 311°
2026-05-04 16:45 45.68420 21.24675 38082 ft 454 kts 310°
2026-05-04 16:46 45.78365 21.07135 38079 ft 454 kts 310°
2026-05-04 16:47 45.86302 20.93057 38075 ft 454 kts 310°
2026-05-04 16:48 45.94222 20.78937 38078 ft 454 kts 310°
2026-05-04 16:49 46.02131 20.64765 38077 ft 454 kts 310°
2026-05-04 16:50 46.10021 20.50555 38073 ft 454 kts 310°
2026-05-04 16:51 46.15877 20.39826 38073 ft 454 kts 306°
2026-05-04 16:52 46.22316 20.24104 38062 ft 455 kts 301°
2026-05-04 16:53 46.27056 20.12239 38067 ft 454 kts 301°
2026-05-04 16:54 46.33387 19.96441 38066 ft 454 kts 301°
2026-05-04 16:55 46.42818 19.72754 38049 ft 454 kts 301°
2026-05-04 16:56 46.50657 19.52902 38044 ft 454 kts 301°
2026-05-04 16:57 46.55344 19.40965 38044 ft 454 kts 301°
2026-05-04 16:58 46.61573 19.25020 38038 ft 453 kts 300°
2026-05-04 17:00 46.70861 19.01065 38038 ft 452 kts 300°
2026-05-04 17:01 46.78542 18.81095 38023 ft 452 kts 300°
2026-05-04 17:02 46.84658 18.65089 38030 ft 451 kts 300°
2026-05-04 17:03 46.89235 18.53047 38030 ft 452 kts 300°
2026-05-04 17:03 46.93802 18.40979 38028 ft 452 kts 300°
2026-05-04 17:04 46.99859 18.24889 38027 ft 453 kts 299°
2026-05-04 17:05 47.06005 18.08789 38023 ft 452 kts 302°
2026-05-04 17:06 47.10994 17.97065 37998 ft 453 kts 302°
2026-05-04 17:07 47.14878 17.87897 38012 ft 452 kts 302°
2026-05-04 17:07 47.19252 17.77430 38006 ft 451 kts 302°
2026-05-04 17:08 47.24150 17.65632 37998 ft 450 kts 302°
2026-05-04 17:09 47.27402 17.57769 37979 ft 449 kts 301°
2026-05-04 17:09 47.30644 17.49911 37986 ft 449 kts 301°
2026-05-04 17:10 47.38180 17.31562 37986 ft 449 kts 301°
2026-05-04 17:11 47.41402 17.23676 37986 ft 449 kts 301°
2026-05-04 17:12 47.46224 17.11831 37974 ft 448 kts 300°
2026-05-04 17:13 47.53427 16.91404 37965 ft 448 kts 296°
2026-05-04 17:14 47.59084 16.75001 37964 ft 446 kts 296°
2026-05-04 17:15 47.63326 16.62728 37959 ft 445 kts 296°
2026-05-04 17:16 47.68944 16.46386 37958 ft 445 kts 296°
2026-05-04 17:17 47.74542 16.29992 37952 ft 445 kts 296°
2026-05-04 17:18 47.80128 16.13529 37943 ft 446 kts 296°
2026-05-04 17:19 47.85689 15.97037 37949 ft 446 kts 296°
2026-05-04 17:20 47.91211 15.80552 37945 ft 446 kts 295°
2026-05-04 17:20 47.95349 15.68136 37933 ft 445 kts 295°
2026-05-04 17:21 48.00816 15.51633 37945 ft 442 kts 295°
2026-05-04 17:22 48.03534 15.43386 37948 ft 443 kts 295°
2026-05-04 17:23 48.08971 15.26810 37924 ft 445 kts 295°
2026-05-04 17:24 48.13048 15.14312 37921 ft 446 kts 295°
2026-05-04 17:25 48.18474 14.97584 37912 ft 447 kts 294°
2026-05-04 17:26 48.23877 14.80816 37906 ft 446 kts 294°
2026-05-04 17:27 48.30589 14.59826 37897 ft 446 kts 294°
2026-05-04 17:28 48.35913 14.43055 37894 ft 446 kts 294°
2026-05-04 17:29 48.43874 14.17761 37901 ft 446 kts 294°
2026-05-04 17:31 48.50471 13.96607 37917 ft 446 kts 293°
2026-05-04 17:32 48.57036 13.75377 37904 ft 447 kts 293°
2026-05-04 17:33 48.62266 13.58332 37905 ft 447 kts 293°
2026-05-04 17:34 48.67481 13.41218 37913 ft 448 kts 292°